Regional Weather Roundup
Issued by NWS Glasgow, MT

Current Version | Previous Version | Text Only | Print | Product List | Glossary On
Versions: 1 2 3 4 5 6 7 8 9 10 11 12 13 14 15 16 17 18 19 20 21 22 23 24 25 26 27 28 29 30 31 32 33 34 35 36 37 38 39 40 41 42 43 44 45 46 47 48 49 50
000
ASUS45 KGGW 270415
RWRGGW
HOURLY WEATHER ROUNDUP FOR NORTHEAST MONTANA
NATIONAL WEATHER SERVICE GLASGOW MONTANA
900 PM MST THU FEB 26 2015

NOTE: "FAIR" INDICATES FEW OR NO CLOUDS BELOW 12,000 FEET WITH NO
SIGNIFICANT WEATHER AND/OR OBSTRUCTIONS TO VISISBILITY.

NORTHEAST MONTANA


CITY           SKY/WX    TMP DP  RH WIND       PRES   REMARKS
GLASGOW        CLEAR      4  -5  66 E10       30.36F WCI -11
PLENTYWOOD       N/A     -2  -9  72 SE3         N/A
WOLF POINT     CLEAR      5  -3  69 CALM      30.42F
JORDAN           N/A      2  -4  76 S7        30.33F
WINNETT          N/A      8   1  73 SE8G16      N/A
SIDNEY         CLEAR      1  -6  71 CALM      30.47F
GLENDIVE       CLEAR      9  -2  61 SE3       30.39F
SCOBEY           N/A      4  -9  55 CALM      30.32F

FORT PECK REPORTS


CITY           SKY/WX    TMP DP  RH WIND       PRES   REMARKS
FORT PECK        N/A      6  -2  69 E7          N/A
THE PINES        N/A      6   1  80 S3          N/A

SOUTHEAST MONTANA


CITY           SKY/WX    TMP DP  RH WIND       PRES   REMARKS
BILLINGS       CLEAR      8   0  69 E5        30.22F
MILES CITY     CLEAR      2  -3  80 SE7       30.37F
BAKER          CLEAR     -2  -7  79 CALM      30.37F
LIVINGSTON     CLOUDY    10   2  69 E10       30.09F WCI  -4

CENTRAL MONTANA


CITY           SKY/WX    TMP DP  RH WIND       PRES   REMARKS
HAVRE          CLEAR      6   1  80 NE7       30.21F
LEWISTOWN      CLEAR      1  -5  75 SE8       30.10F
GREAT FALLS    CLEAR      7   2  80 E6        30.07F
CUT BANK       CLOUDY    10   7  87 SE12      30.05F WCI  -5
HELENA         MOCLDY    15   9  76 W3        30.05F
BUTTE          CLEAR     14   8  77 S10       29.95F
BOZEMAN        CLEAR     12   4  70 SE5       30.05F

WESTERN MONTANA


CITY           SKY/WX    TMP DP  RH WIND       PRES   REMARKS
MISSOULA       MOCLDY    30  15  53 E12       29.98F
KALISPELL      NOT AVBL

NORTH DAKOTA


CITY           SKY/WX    TMP DP  RH WIND       PRES   REMARKS
WILLISTON      PTCLDY    -9 -14  78 CALM      30.46F
DICKINSON      CLEAR     -3 -10  72 S6        30.39F
MINOT          CLEAR     -7 -14  71 SW8       30.47F
BISMARCK       CLEAR      0  -8  69 NW3       30.52S

SOUTHERN SASKATCHEWAN


CITY           SKY/WX    TMP DP  RH WIND       PRES   REMARKS
REGINA         CLEAR     -9 -13  84 SE7       30.41F
ESTEVAN        CLEAR    -11 -17  77 SW5       30.44F
SWIFT CURRENT  CLEAR      3  -6  66 S16       30.22F WCI -16




USA.gov is the U.S. government's official web portal to all federal, state and local government web resources and services.